OPS 5712 (P/L 160)

Last updated on Wed Sep 09 2026 00:03:47 GMT+0000 (Coordinated Universal Time)

1 02826U 67053A 26251.55114653 .00006596 00000+0 90862-3 0 9998 2 02826 69.9159 193.8058 0004255 275.3101 84.7562 14.78649298 78553
UTC large
Height (km)
Speed (km/s)
/
Latitude / Longitude
Inclination (degrees)
Orbital Period (minutes)
Azimuth
Elevation
Range (km)
Doppler Factor

Next 0 passes for location: London (51.5072 / 0.1276)

No passes found over London.
OPS 5712 (P/L 160)